رشت, ایران

09:26 PM +0430 on ژوئن 20, 2018 (GMT +0430)
Rasht | | Change Station

Elev -39 ft 37.33 °N, 49.61 °E | Updated 26 minutes ago

ابرهاى پراكنده
ابرهاى پراكنده
77 °F
Feels Like 77 °F
N
5
باد متغير باد from NNE

امروز
High -- | Low -- °F
--% Chance of Precip.
دیروز
High -- | Low -- °F
Precip. -- در
فشار 29.92 در
ديد 6.2 مايل، ميل (در برابر كيلومتر
ابری ابرهای پراکنده 2000 ft
بیشتر ابری 8000 ft
قطره شبنم 66 °F
رطوبت 69%
بارش باران 0.00 در
برف عمیق Not available.
5:50 AM 8:32 PM
ربع اول, 53% visible
METAR OIGG 201630Z 03004KT 9999 SCT020 BKN080 25/19 Q1013
فشار 29.92 در
ديد 6.2 مايل، ميل (در برابر كيلومتر
ابری ابرهای پراکنده 2000 ft
بیشتر ابری 8000 ft
قطره شبنم 66 °F
رطوبت 69%
بارش باران 0.00 در
برف عمیق Not available.
5:50 AM 8:32 PM
ربع اول, 53% visible
METAR OIGG 201630Z 03004KT 9999 SCT020 BKN080 25/19 Q1013

Get Severe Weather Alerts

Thanks for signing up!

Be on the lookout for a verification email in your inbox.

You'll start receiving the daily forecast at 6 AM.

×

10-Day Weather Forecast

No radar image for this location.
×

Almanac

ستاره شناسی

Jun. 20, 2018 Rise Set
وقت حقیقی
تاریک و روشن اجتماعی
تاریک روشن دریایی
شفق و فلق نجومی
ماه
میزان روشنایی روز
طول روز
Tomorrow will be .
, % of the Moon is Illuminated

Today's Extremes

Country Highs Country Lows

Community

WunderPhotos

Category 6

Welcome to Category 6. This is the collective home for Weather Underground's featured writeups by Dr. Jeff Masters (right), Bob Henson (left), Chris Burt, and other regular contributors.

Nearby

تمیزی هوا

  تمیزی هوا AQ Index آلاینده
Not available.

عمق برف

Station Depth Elevation

Earthquake Activity

شهر Distance Mag. Time & Date
Minimum magnitude displayed is 2.5.

Coastal Water Temperatures

منطقه درجه حرارت

Stations

Nearby Weather Stations

Station Location دما باد سرد قطره شبنم رطوبت باد Precip. Elev ارتقا دادن Type